Regional Weather Roundup
Issued by NWS Charleston, SC

Current Version | Previous Version | Text Only | Print | Product List | Glossary Off
Versions: 1 2 3 4 5 6 7 8 9 10 11 12 13 14 15 16 17 18 19 20 21 22 23 24 25 26 27 28 29 30 31 32 33 34 35 36 37 38 39 40 41 42 43 44 45 46 47 48 49 50

000
ASUS42 KCHS 201327
RWRCHS

Regional Weather Roundup
National Weather Service Charleston SC
800 AM EST SAT JAN 20 2018

NOTE: "fair" indicates few or no clouds below 12,000 feet with no
significant weather and/or obstructions to visibility.

Not all stations are quality controlled. Use data with caution,
especially dewpoint observations.

SCZ027-030-031-034>040-042>050-201400-
...Southeast South Carolina...

CITY           SKY/WX    TMP DP  RH WIND       PRES   REMARKS
N Charleston   FAIR      35  24  64 CALM      30.27S
Waterfront Prk NOT AVBL
Mount Pleasant FAIR      34  30  86 CALM      30.28R
Johns Island   FAIR      37  28  70 CALM      30.28S
Pinopolis        N/A     37  21  52 SW7       30.18R WCI  32
Moncks Corner  FAIR      28  27  93 CALM      30.26S
Summerville    FAIR      32  28  86 SW3       30.28S
Beaufort MCAS  FAIR      30  25  81 CALM      30.28R
Beaufort Arpt  FAIR      36  28  75 CALM      30.29R
Hilton Head Is CLEAR     34  25  69 W3        30.30R
Walterboro     FAIR      32  27  80 CALM      30.28S
Allendale      FAIR      30  23  74 CALM      30.27R

...Southern Midlands and Pee Dee...

CITY           SKY/WX    TMP DP  RH WIND       PRES   REMARKS
Georgetown     FAIR      32  28  86 SW3       30.28R
Kingstree      FAIR      28  25  86 CALM      30.25R
Orangeburg     FAIR      27  22  81 SW5       30.25R WCI  22
Barnwell         N/A     30  27  86 CALM      30.26S
Aiken          FAIR      34  19  55 SW7       30.26S WCI  28
Manning        FAIR      30  23  74 MISG      30.25R
Columbia       FAIR      30  21  69 CALM      30.22S
Sumter         FAIR      36  15  43 CALM      30.19F
Florence       FAIR      28  20  71 SW3       30.23R
Myrtle Beach   FAIR      37  22  54 SW5       30.27R WCI  33
N Myrtle Beach FAIR      33  25  72 SW5       30.25R WCI  29

$$

GAZ063-065-086>088-099>101-113>116-118-119-134>141-150-201400-
...Southeast Georgia...

CITY           SKY/WX    TMP DP  RH WIND       PRES   REMARKS
Savannah Arpt  FAIR      32  25  75 CALM      30.30R
Hunter AAF     FAIR      32  24  72 CALM      30.27R
Fort Stewart   FAIR      31  24  77 CALM      30.27S
Statesboro     FAIR      31  25  80 CALM      30.29R
Sylvania       FAIR      31  27  86 CALM      30.29R
Claxton        FAIR      31  29  94 CALM      30.30R

...CSRA, Central and far Southeast Georgia...

CITY           SKY/WX    TMP DP  RH WIND       PRES   REMARKS
Thomson        FAIR      37  16  42 N6        30.30S WCI  32
Augusta-Bush   FAIR      24  21  88 CALM      30.26R
Augusta-Daniel FAIR      43  16  33 W6        30.25R
Swainsboro     FAIR      30  28  93 CALM      30.30R
Vidalia        FAIR      36  28  75 NW3       30.29S
Eastman        FAIR      30  24  76 CALM      30.33R
Hazlehurst     FAIR      35  21  55 CALM      30.29R
Alma           FAIR      30  27  88 CALM      30.30R FOG
Waycross       FAIR      32  29  89 CALM      30.31R
Jesup          FAIR      30  27  86 CALM      30.31R
Baxley         FAIR      30  28  93 CALM      30.30R
Brunswick      FAIR      32  32 100 CALM      30.31S
Saint Simons   FAIR      35  33  92 CALM      30.30R

$$

SCZ027-028-034-036>038-045-046-048>050-GAZ119-141-201400-
...Lake and Supplemental Coastal Observations...

STATION/POSITION TIME  TEMP    WIND        PRES    WAVE   SWELL
                       AIR SEA DIR/SP/G            HT/PER HT/PER/DIR
                 (UTC) (F)     (DEG/KT/KT) (MB)    (FT/S) (FT/S/D)
Winyah Bay       1230   36     190/  1     1025.0R
Lake Murray      1220   42     260/  6/  9 1022.4S
ACE Basin NERRS  1245   31        CALM     1025.0S
Fort Pulaski     1300   40 45  220/  2/  2 1026.0
Sapelo Island    1300   33        CALM     1026.0

$$

ANZ835-935-AMZ111-154-330-350-352-354-370-450-454-472-201400-
...C-MAN and Buoy Observations...

STATION/POSITION TIME  TEMP    WIND        PRES    WAVE   SWELL
                       AIR SEA DIR/SP/G            HT/PER HT/PER/DIR
                 (UTC) (F)     (DEG/KT/KT) (MB)    (FT/S) (FT/S/D)
Buoy 41004       1300   57 69  270/ 12/ 16 1025.0
Buoy 41008       1250   48 51  320/  6/  8 1025.7R   2/11   2/ 70/11
Folly Beach CMAN 1300   40     240/  4/  5 1025.5R
Capers Nearshore 1308   43     260/  8/ 10 1024.8R
Fripp Nearshore  1308   42 45  250/  6/  8 1024.7R


STATION/POSITION TIME  TEMP    WIND        PRES    WAVE   SWELL
                       AIR SEA DIR/SP/G            HT/PER HT/PER/DIR
                 (UTC) (F)     (DEG/KT/KT) (MB)    (FT/S) (FT/S/D)
5E St. Marys GA  1300      48                N/A     2/11   2/ 90/11
Frying Pan Buoy  1300   54 60  260/ 12/ 16 1024.5
Buoy 41025       1310   59     250/ 21/ 25   N/A
Cape Lookout NC  1300          240/  8/ 10 1023.3R
Buoy 41002       1250   65 70  250/ 12/ 16 1025.1R   4/11   3/ 20/11
Buoy 41010       NOT AVBL
St Augustine FL  1300   42 49  320/  3/  4 1026.2R


$$




USA.gov is the U.S. government's official web portal to all federal, state and local government web resources and services.